User: anonymous   Login
Location: Althorst
(53.6379°N, 10.7715°E)
Time: 11:22:04
(UTC+00:00)
Language:

NOSS 3-4 (A) - Orbit

View from above orbital plane
View from above orbital plane
View from above satellite
View from above satellite

Ground track
Ground track

The orbit data is extracted from the following two-line orbital elements,

1 31701U 07027A   20052.16200506 0.00000000  00000-0  00000-0 0    00
2 31701  63.3946 106.4165 0274706  20.2110 339.7890 13.40796267    04
Epoch (UTC): 21 February 2020 03:53:17
Eccentricity: 0.0274706
inclination: 63.3946°
perigee height: 901 km
apogee height: 1312 km
right ascension of ascending node: 106.4165°
argument of perigee: 20.2110°
revolutions per day: 13.40796267
mean anomaly at epoch: 339.7890°
orbit number at epoch: 0

The dashed part of the orbit path shows where the satellite is in the earth's shadow,  

DLR